Showing default

KSM1-D, 46907

Orbit data source: Space-Track

KSM1-D, 46907 is a payload satellite owned by Kleos Space (LU) in LEO that was launched on Sat, 07 Nov 2020 UTC via a PSLV-DL launch vehicle from the Sirharikota (SRI). Payloads include a variety of satellites, spacecraft, and rockets equipped with specific instruments for various scientific and technological missions. These include communications satellites like Starlink; space stations such as the ISS; scientific satellites like the Hubble; Earth observation satellites from companies like Planet Labs, Umbra, and HawkEye 360; GPS; miniature CubeSats for education and research; and military/defense satellites.

Loading next visibility...
KSM1-D details
Identifier
46907, 2020-081C
Orbit
LEO
Last TLE update10 hours ago
Origin
Flag of LUKleos Space (LU / LUXE)
ManufacturerGOMSpace
MissionOperational Commercial Sigint
Bus & MotorCUBESAT 6U, Unknown motor
Mass~10 kg wet, ~10 kg dry
Launch date (UTC)
2020-11-07 (4 years ago)
Launch vehicle
PSLV-DL
Launch site
Sirharikota (SRI)
Object type
Payload
Rocket body
Debris
Shape & HBRBox, 0.3 m
Radar Cross Section0.080 m², Medium (>0.1 m² and < 1m²)

Expand to show TLE details & history

TLE from 10 hours ago
0 KSM1-D
1 46907U 20081C   24361.03084157  .00015160  00000-0  82546-3 0  9992
2 46907  36.8967 114.0447 0006338  77.4374 282.7079 15.13774214227247
Epoch: 2024-12-26T00:44Z
Definitive object data (Epoch: 2024-12-26T00:44:24.711Z)
Latitude-0.00007°
Longitude7.92557°
Altitude522.854 km
Speed7.605 km/s
True Right ascension07h 36m 10s
True Declination0° 00' 00"
Sunlit
Object was in full shadow at TLE epoch
Visualization TLE readout
Latitude36.85382°
Longitude102.23224°
Altitude521.596 km
Speed7.611 km/s
Apparent Right ascension17h 32m 18s
Apparent Declination0° 31' 18"
Sunlit
Object is in daylight
Visualization observer readout
Local Sidereal Time10:00:39
Azimuth74.423° E
Elevation-17.022°
Doppler factor1
Orbital elements
Apogee altitude532.015 km
Perigee altitude523.261 km
Semi-major axis6,905.775 km
Eccentricity0.0006338
Inclination36.8967°
RAAN114.0447°
Arg. of periapsis77.4374°
True anomaly282.63704°
Mean anomaly282.7079°
Eccentric anomaly282.67247°
Mean motion3.78203 °/min
BSTAR0.00082546
Orbital period95.19 mins
Loading maneuver chart data...
Loading historical data...
Loading historical data...
Loading historical data...
Loading historical data...
Loading historical data...
Loading historical data...
Loading historical data...

KSM1-D Visibility forecast

Observer location: undefined°, undefined

Span
Click to sort rows by Start time (UTC) header in descending order
Start Az.
Max El. time (UTC)
Max El. Az.
Max El.
End time (UTC)
End Az.
6 mins2024-12-26 12:04:26.324Z219.996° SW2024-12-26 12:07:26.324Z154.906° SSE27.968°2024-12-26 12:10:26.324Z100.516° ESE
6 mins2024-12-26 13:44:26.324Z251.058° W2024-12-26 13:47:26.324Z165.486° S38.965°2024-12-26 13:50:26.324Z102.741° ESE
5 mins2024-12-26 15:25:26.324Z248.315° W2024-12-26 15:27:26.324Z189.914° SSW32.727°2024-12-26 15:30:26.324Z127.537° SE
|